Location: Mahannah Oil Field
(37.4664°N, 96.6003°W)
Time: 10:05:05
(UTC+00:00)

deb Explorer IX - Visible Passes

Search period start: 18 June 2021 00:00
Search period end: 28 June 2021 00:00
Orbit: 542 x 1096 km, 38.8° (Epoch: 17 June)

Date Brightness Start Highest point End Pass type
(mag) Time Alt. Az. Time Alt. Az. Time Alt. Az.
20 Jun ? 10:20:46 10° SSE 10:22:02 11° SE 10:23:15 10° SE visible
21 Jun ? 09:56:39 10° SSE 09:58:12 12° SE 09:59:42 10° SE visible
22 Jun ? 09:32:31 10° S 09:34:22 12° SE 09:36:07 10° ESE visible
23 Jun ? 09:09:45 12° SSE 09:10:30 13° SE 09:12:32 10° ESE visible
24 Jun ? 08:46:57 13° SE 08:46:57 13° SE 08:48:55 10° ESE visible
24 Jun ? 10:28:27 10° SW 10:32:58 48° SSE 10:37:01 10° E visible
25 Jun ? 08:24:05 13° SE 08:24:05 13° SE 08:25:17 10° ESE visible
25 Jun ? 10:05:19 15° SW 10:09:07 49° SSE 10:13:16 10° E visible
26 Jun ? 08:01:11 11° ESE 08:01:11 11° ESE 08:01:38 10° ESE visible
26 Jun ? 09:42:24 22° SW 09:45:16 50° SSE 09:49:32 10° E visible
27 Jun ? 09:19:27 32° SW 09:21:24 51° SSE 09:25:46 10° E visible
